Voltar ao catálogo

COSMOS 1823 DEB

AtivoLEO
NORAD 39811·DEBRIS·🇷🇺 Russia

Lançado Feb 20, 1987 de Plesetsk Cosmodrome

Loading…

Próximas Passagens (próximas 24 horas)

TLE

ObsoletoSource: Space-Track

Época: Aug 30, 2026, 17:48 UTC

1 39811U 87020EK  26242.74218524  .00000039  00000-0  38750-3 0  9996
2 39811  73.6254 244.2961 0035035 355.1202 182.2457 12.46445924 32008

Acompanhe COSMOS 1823 DEB em tempo real com AllMySat

Download on the App Store